Regional Weather Roundup
Issued by NWS

Home | Current Version | Previous Version | Graphics & Text | Print | Product List | Glossary On
Versions: 1 2 3 4 5 6 7 8 9 10 11 12 13 14 15 16 17 18 19 20 21 22 23 24 25 26 27 28 29 30 31 32 33 34 35 36 37 38 39 40 41 42 43 44 45 46 47 48 49 50
000
ASUS43 KBIS 301210
RWRND

NORTH DAKOTA REGIONAL WEATHER ROUNDUP
NATIONAL WEATHER SERVICE BISMARCK ND
700 AM CDT SAT APR 30 2016

NOTE: "FAIR" INDICATES FEW OR NO CLOUDS BELOW 12,000 FEET WITH NO
SIGNIFICANT WEATHER AND/OR OBSTRUCTIONS TO VISIBILITY.


NDZ001>003-009>011-017-301300-
NORTHWEST NORTH DAKOTA

CITY           SKY/WX    TMP DP  RH WIND       PRES   REMARKS
WILLISTON      CLEAR     37  29  72 N6        30.23R
6HR MIN TEMP:  35; 6HR MAX TEMP:  45;

MINOT          CLEAR     35  25  66 NW5       30.25R
MINOT AFB      CLEAR     36  26  68 N2        30.24R
$$

NDZ018>021-031>035-040>046-301300-
SOUTHWEST NORTH DAKOTA

CITY           SKY/WX    TMP DP  RH WIND       PRES   REMARKS
BISMARCK       CLOUDY    40  32  73 NE12      30.16S
6HR MIN TEMP:  36; 6HR MAX TEMP:  43;

DICKINSON      CLOUDY    32  26  78 NE8       30.14R
GARRISON         N/A     38  31  76 NE8       30.20S
6HR MIN TEMP:  38; 6HR MAX TEMP:  45;

HETTINGER ARPT MOCLDY    39  32  76 E7        30.13R
$$

NDZ004>008-012>016-024-026-027-054-301300-
NORTHEAST NORTH DAKOTA

CITY           SKY/WX    TMP DP  RH WIND       PRES   REMARKS
GRAND FORKS    CLEAR     38  31  76 E8        30.26R
GRND FRKS AFB  CLEAR     31  28  87 NE7       30.27R
DEVILS LAKE    CLEAR     38  31  76 NE8       30.26R
$$

NDZ022-023-025-028>030-036>039-047>053-301300-
SOUTHEAST NORTH DAKOTA

CITY           SKY/WX    TMP DP  RH WIND       PRES   REMARKS
FARGO          CLEAR     41  31  67 NE9       30.20R
6HR MIN TEMP:  40; 6HR MAX TEMP:  50;

JAMESTOWN      CLEAR     38  32  79 NE9       30.18R
$$





USA.gov is the U.S. government's official web portal to all federal, state and local government web resources and services.